EDT,Max TemperatureF,Mean TemperatureF,Min TemperatureF,Max Dew PointF,MeanDew PointF,Min DewpointF,Max Humidity, Mean Humidity, Min Humidity, Max Sea Level PressureIn, Mean Sea Level PressureIn, Min Sea Level PressureIn, Max VisibilityMiles, Mean VisibilityMiles, Min VisibilityMiles, Max Wind SpeedMPH, Mean Wind SpeedMPH, Max Gust SpeedMPH,PrecipitationIn, CloudCover, Events, WindDirDegrees
2013-7-1,82,76,71,79,75,72,100,95,74,30.05,29.94,29.85,10,9,2,20,7,28,0.02,6,Rain-Thunderstorm,179
2013-7-2,80,76,73,79,76,73,100,97,79,30.19,30.12,30.04,10,10,2,14,6,17,0.02,3,Rain-Thunderstorm,163
2013-7-3,86,80,73,79,76,73,100,94,70,30.25,30.20,30.16,10,10,2,18,5,24,0.01,4,Rain-Thunderstorm,147
2013-7-4,84,80,75,79,76,73,100,92,74,30.26,30.24,30.21,10,10,4,16,7,22,0.01,4,Rain,140
2013-7-5,86,80,73,79,76,73,100,91,70,30.27,30.24,30.20,10,10,5,16,5,21,0.01,3,Rain-Thunderstorm,134
2013-7-6,86,78,69,77,73,70,100,85,66,30.26,30.22,30.17,10,10,4,14,5,20,0.01,2,Rain,132
2013-7-7,86,78,69,77,72,70,100,84,62,30.22,30.18,30.13,10,10,5,12,3,16,0.02,2,,173
2013-7-8,87,78,68,75,72,68,100,84,62,30.21,30.19,30.14,10,10,10,10,2,,0.01,2,,184
2013-7-9,87,78,69,75,72,70,100,83,58,30.21,30.17,30.13,10,10,10,13,3,17,0.00,1,,192
2013-7-10,87,78,69,77,73,70,100,84,58,30.16,30.08,30.00,10,10,10,14,3,20,0.00,1,,170
2013-7-11,87,78,69,77,73,70,100,84,62,30.03,29.98,29.92,10,10,4,13,4,21,0.00,2,Rain-Thunderstorm,202
2013-7-12,78,74,71,77,74,72,100,98,83,29.99,29.94,29.90,10,10,4,6,2,,0.01,6,Rain-Thunderstorm,162
2013-7-13,84,78,71,77,75,72,100,94,74,30.12,30.03,29.97,10,10,1,13,4,22,0.00,4,Rain-Thunderstorm,96
2013-7-14,86,78,71,77,75,72,100,89,74,30.24,30.19,30.12,10,10,4,17,8,29,0.00,4,Rain,108
2013-7-15,86,82,77,79,77,75,100,92,74,30.28,30.25,30.22,10,10,10,15,6,20,0.01,5,,83
2013-7-16,86,78,71,79,74,72,100,86,62,30.29,30.25,30.21,10,9,2,12,2,,0.00,1,,112
2013-7-17,91,81,71,79,74,72,100,89,55,30.24,30.19,30.11,10,10,3,17,1,25,0.00,1,Rain-Thunderstorm,291
2013-7-18,89,79,69,77,73,70,100,87,59,30.17,30.14,30.10,10,10,7,12,1,,0.01,1,Thunderstorm,190
2013-7-19,87,78,69,77,73,70,100,85,62,30.16,30.11,30.04,10,10,7,14,3,21,0.00,2,Rain-Thunderstorm,193
2013-7-20,86,78,71,77,74,72,100,88,66,30.11,30.07,30.02,10,10,7,16,6,25,0.00,3,Rain-Thunderstorm,196
2013-7-21,84,78,71,77,74,72,100,93,74,30.07,30.02,29.97,10,10,5,14,5,22,0.00,5,Rain,231
2013-7-22,89,80,71,77,74,72,100,85,59,30.02,29.97,29.91,10,10,10,14,8,18,0.00,3,,238
2013-7-23,87,80,73,75,73,72,100,83,58,29.95,29.88,29.81,10,10,10,15,9,21,0.00,3,,236
2013-7-24,84,78,71,77,74,72,100,91,70,29.85,29.82,29.77,10,10,7,6,1,,0.00,1,Rain,245
2013-7-25,87,78,69,79,74,70,100,89,66,30.00,29.88,29.79,10,9,5,9,1,,0.00,3,Rain,99
2013-7-26,84,76,69,77,74,70,100,90,74,30.09,30.05,30.00,10,10,5,12,3,16,0.00,3,,90
2013-7-27,87,78,68,77,74,68,100,88,66,30.07,30.00,29.95,10,10,3,12,2,,0.00,2,Thunderstorm,131
2013-7-28,87,79,71,79,74,68,100,92,66,30.04,29.99,29.94,10,10,2,12,1,21,0.01,2,Rain-Thunderstorm,182
2013-7-29,87,79,71,79,74,72,100,92,62,30.16,30.09,30.03,10,8,0,12,1,23,0.00,3,Fog-Rain-Thunderstorm,180
2013-7-30,86,78,71,79,75,72,100,94,70,30.20,30.16,30.13,10,8,1,12,1,,0.01,4,Rain-Thunderstorm,113
2013-7-31,84,78,71,81,76,72,100,97,84,30.15,30.11,30.04,10,8,2,8,0,,0.00,4,Rain-Thunderstorm,127